| time (UTC) | temp F | wind direction | speed MPH | gust MPH | rain 1hr in | rain 24hr in | rain mn in | humidity % | barometer mb |
| 20260509023028 | 55 | 117 | 1.0 | 4.0 | 0.00 | 0.00 | 0.00 | 54 | 1019.9 |
| 20260509021524 | 56 | 139 | 0.0 | 2.0 | 0.00 | 0.00 | 0.00 | 52 | 1019.5 |
| 20260509020026 | 57 | 129 | 0.0 | 2.0 | 0.00 | 0.00 | 0.00 | 50 | 1019.4 |
| 20260509014524 | 57 | 145 | 2.0 | 8.0 | 0.00 | 0.00 | 0.00 | 48 | 1019.3 |
| 20260509013024 | 58 | 109 | 1.0 | 3.0 | 0.00 | 0.00 | 0.00 | 46 | 1019.1 |
| 20260509011523 | 58 | 149 | 0.0 | 3.0 | 0.00 | 0.00 | 0.00 | 46 | 1018.7 |
| 20260509010029 | 59 | 136 | 0.0 | 2.0 | 0.00 | 0.00 | 0.00 | 43 | 1018.5 |
| 20260509004532 | 61 | 116 | 2.0 | 7.0 | 0.00 | 0.00 | 0.00 | 39 | 1018.4 |
| 20260509003022 | 64 | 106 | 2.0 | 7.0 | 0.00 | 0.00 | 0.00 | 37 | 1018.4 |
| 20260509001525 | 64 | 107 | 1.0 | 6.0 | 0.00 | 0.00 | 0.00 | 37 | 1018.3 |
| 20260509000021 | 62 | 125 | 1.0 | 9.0 | 0.00 | 0.00 | 0.00 | 39 | 1018.3 |
| 20260508234525 | 63 | 78 | 2.0 | 12.0 | 0.00 | 0.00 | 0.00 | 37 | 1018.4 |
| 20260508233020 | 64 | 91 | 4.0 | 10.0 | 0.00 | 0.00 | 0.00 | 35 | 1018.3 |
| 20260508231519 | 64 | 109 | 3.0 | 10.0 | 0.00 | 0.00 | 0.00 | 36 | 1018.4 |
| 20260508230019 | 65 | 136 | 4.0 | 9.0 | 0.00 | 0.00 | 0.00 | 35 | 1018.0 |
| 20260508224522 | 65 | 125 | 4.0 | 11.0 | 0.00 | 0.00 | 0.00 | 35 | 1018.2 |
| 20260508223024 | 64 | 122 | 2.0 | 9.0 | 0.00 | 0.00 | 0.00 | 35 | 1018.3 |
| 20260508221517 | 65 | 125 | 3.0 | 12.0 | 0.00 | 0.00 | 0.00 | 35 | 1018.4 |
| 20260508220015 | 65 | 113 | 1.0 | 8.0 | 0.00 | 0.00 | 0.00 | 37 | 1018.5 |
| 20260508214523 | 64 | 127 | 1.0 | 11.0 | 0.00 | 0.00 | 0.00 | 37 | 1018.7 |
| 20260508213017 | 64 | 129 | 2.0 | 10.0 | 0.00 | 0.00 | 0.00 | 37 | 1018.7 |
| 20260508211513 | 64 | 109 | 4.0 | 11.0 | 0.00 | 0.00 | 0.00 | 36 | 1018.8 |
| 20260508210015 | 64 | 120 | 2.0 | 10.0 | 0.00 | 0.00 | 0.00 | 36 | 1018.9 |
| 20260508204517 | 64 | 280 | 2.0 | 7.0 | 0.00 | 0.00 | 0.00 | 37 | 1019.1 |
| 20260508203016 | 65 | 132 | 4.0 | 11.0 | 0.00 | 0.00 | 0.00 | 35 | 1019.3 |
| 20260508201511 | 63 | 110 | 3.0 | 8.0 | 0.00 | 0.00 | 0.00 | 37 | 1019.4 |
| 20260508200009 | 63 | 107 | 1.0 | 6.0 | 0.00 | 0.00 | 0.00 | 38 | 1019.4 |
| 20260508194507 | 63 | 114 | 5.0 | 10.0 | 0.00 | 0.00 | 0.00 | 39 | 1019.4 |
| 20260508193007 | 63 | 136 | 4.0 | 10.0 | 0.00 | 0.00 | 0.00 | 39 | 1019.5 |
| 20260508191505 | 62 | 105 | 3.0 | 11.0 | 0.00 | 0.00 | 0.00 | 38 | 1019.6 |
| 20260508190014 | 63 | 126 | 3.0 | 9.0 | 0.00 | 0.00 | 0.00 | 39 | 1019.5 |
| 20260508184512 | 62 | 150 | 3.0 | 8.0 | 0.00 | 0.00 | 0.00 | 38 | 1019.8 |
| 20260508183007 | 63 | 123 | 1.0 | 5.0 | 0.00 | 0.00 | 0.00 | 39 | 1020.0 |
| 20260508181501 | 60 | 224 | 2.0 | 7.0 | 0.00 | 0.00 | 0.00 | 41 | 1020.1 |
| 20260508180114 | 61 | 132 | 0.0 | 5.0 | 0.00 | 0.00 | 0.00 | 42 | 1020.4 |
| 20260508174612 | 59 | 127 | 1.0 | 3.0 | 0.00 | 0.00 | 0.00 | 44 | 1020.5 |
| 20260508173058 | 58 | 125 | 1.0 | 5.0 | 0.00 | 0.00 | 0.00 | 46 | 1020.6 |
| 20260508171555 | 58 | 313 | 0.0 | 3.0 | 0.00 | 0.00 | 0.00 | 50 | 1020.7 |
| 20260508164554 | 57 | 341 | 2.0 | 5.0 | 0.00 | 0.00 | 0.00 | 53 | 1020.7 |
| 20260508163051 | 55 | 115 | 1.0 | 4.0 | 0.00 | 0.00 | 0.00 | 58 | 1020.8 |
| 20260508161548 | 54 | 112 | 0.0 | 6.0 | 0.00 | 0.00 | 0.00 | 59 | 1020.9 |
| 20260508160047 | 54 | 215 | 2.0 | 7.0 | 0.00 | 0.00 | 0.00 | 59 | 1020.8 |
| 20260508154547 | 52 | 120 | 1.0 | 4.0 | 0.00 | 0.01 | 0.00 | 63 | 1020.8 |
| 20260508153054 | 49 | 19 | 2.0 | 6.0 | 0.00 | 0.01 | 0.00 | 64 | 1020.9 |
| 20260508151546 | 49 | 121 | 2.0 | 7.0 | 0.00 | 0.01 | 0.00 | 65 | 1021.0 |
| 20260508150044 | 47 | 39 | 3.0 | 6.0 | 0.00 | 0.01 | 0.00 | 69 | 1021.4 |
| 20260508144550 | 46 | 108 | 4.0 | 8.0 | 0.00 | 0.04 | 0.00 | 72 | 1021.3 |
| 20260508143047 | 45 | 298 | 4.0 | 10.0 | 0.00 | 0.04 | 0.00 | 73 | 1021.4 |
| 20260508141553 | 45 | 36 | 2.0 | 11.0 | 0.00 | 0.04 | 0.00 | 76 | 1021.6 |
| 20260508140041 | 44 | 132 | 2.0 | 13.0 | 0.00 | 0.04 | 0.00 | 76 | 1021.6 |
| 20260508134538 | 45 | 24 | 4.0 | 8.0 | 0.00 | 0.05 | 0.00 | 70 | 1021.5 |
| 20260508133034 | 48 | 93 | 0.0 | 4.0 | 0.00 | 0.05 | 0.00 | 59 | 1020.8 |
| 20260508131531 | 53 | 36 | 3.0 | 10.0 | 0.00 | 0.05 | 0.00 | 40 | 1020.2 |
| 20260508130037 | 52 | 319 | 3.0 | 6.0 | 0.00 | 0.05 | 0.00 | 42 | 1020.1 |
| 20260508124535 | 51 | 19 | 1.0 | 5.0 | 0.00 | 0.05 | 0.00 | 44 | 1020.1 |
| 20260508123030 | 49 | 269 | 1.0 | 3.0 | 0.00 | 0.05 | 0.00 | 48 | 1020.2 |
| 20260508121530 | 48 | 277 | 1.0 | 3.0 | 0.00 | 0.05 | 0.00 | 49 | 1020.1 |
| 20260508120027 | 48 | 279 | 0.0 | 2.0 | 0.00 | 0.05 | 0.00 | 49 | 1020.0 |
| 20260508114527 | 48 | 290 | 1.0 | 4.0 | 0.00 | 0.05 | 0.00 | 49 | 1019.8 |
| 20260508113026 | 48 | 320 | 1.0 | 4.0 | 0.00 | 0.05 | 0.00 | 48 | 1019.8 |
| 20260508111525 | 49 | 307 | 0.0 | 4.0 | 0.00 | 0.05 | 0.00 | 47 | 1019.9 |
| 20260508110027 | 49 | 313 | 2.0 | 7.0 | 0.00 | 0.05 | 0.00 | 47 | 1019.9 |
| 20260508104529 | 48 | 302 | 1.0 | 4.0 | 0.00 | 0.05 | 0.00 | 49 | 1019.8 |
| 20260508103027 | 48 | 281 | 0.0 | 4.0 | 0.00 | 0.05 | 0.00 | 49 | 1019.9 |
| 20260508101519 | 49 | 275 | 0.0 | 2.0 | 0.00 | 0.05 | 0.00 | 46 | 1020.0 |
| 20260508100019 | 50 | 276 | 1.0 | 6.0 | 0.00 | 0.05 | 0.00 | 45 | 1020.2 |
| 20260508094522 | 50 | 267 | 1.0 | 8.0 | 0.00 | 0.05 | 0.00 | 45 | 1020.2 |
| 20260508093026 | 50 | 275 | 0.0 | 2.0 | 0.00 | 0.05 | 0.00 | 45 | 1020.3 |
| 20260508091518 | 51 | 276 | 2.0 | 6.0 | 0.00 | 0.05 | 0.00 | 44 | 1020.3 |
| 20260508090013 | 51 | 281 | 2.0 | 5.0 | 0.00 | 0.05 | 0.00 | 44 | 1020.6 |
| 20260508084513 | 50 | 274 | 2.0 | 5.0 | 0.00 | 0.05 | 0.00 | 45 | 1021.0 |
| 20260508083009 | 51 | 267 | 0.0 | 2.0 | 0.00 | 0.05 | 0.00 | 43 | 1021.2 |
| 20260508081510 | 51 | 252 | 0.0 | 2.0 | 0.00 | 0.05 | 0.00 | 42 | 1021.3 |
| 20260508080004 | 53 | 313 | 1.0 | 7.0 | 0.00 | 0.05 | 0.00 | 40 | 1021.6 |
| 20260508074502 | 53 | 265 | 3.0 | 10.0 | 0.00 | 0.05 | 0.00 | 39 | 1021.6 |
| 20260508073101 | 53 | 279 | 3.0 | 10.0 | 0.00 | 0.05 | 0.00 | 38 | 1021.8 |
| 20260508071558 | 54 | 268 | 4.0 | 13.0 | 0.00 | 0.05 | 0.00 | 38 | 1021.9 |
| 20260508070055 | 54 | 264 | 3.0 | 13.0 | 0.00 | 0.05 | 0.00 | 38 | 1022.2 |
| 20260508064555 | 54 | 300 | 5.0 | 16.0 | 0.00 | 0.05 | 0.05 | 37 | 1022.1 |
| 20260508063104 | 54 | 284 | 5.0 | 16.0 | 0.00 | 0.05 | 0.05 | 37 | 1022.1 |
| 20260508061553 | 54 | 277 | 5.0 | 15.0 | 0.00 | 0.05 | 0.05 | 37 | 1022.3 |
| 20260508060053 | 54 | 284 | 7.0 | 13.0 | 0.00 | 0.05 | 0.05 | 38 | 1022.4 |
| 20260508054553 | 54 | 284 | 6.0 | 13.0 | 0.00 | 0.05 | 0.05 | 37 | 1022.6 |
| 20260508053103 | 55 | 275 | 7.0 | 13.0 | 0.00 | 0.05 | 0.05 | 37 | 1022.8 |
| 20260508051550 | 55 | 294 | 5.0 | 12.0 | 0.00 | 0.05 | 0.05 | 36 | 1022.8 |
| 20260508050049 | 55 | 272 | 3.0 | 11.0 | 0.00 | 0.05 | 0.05 | 36 | 1023.0 |
| 20260508044548 | 56 | 313 | 4.0 | 10.0 | 0.00 | 0.05 | 0.05 | 35 | 1023.1 |
| 20260508043057 | 56 | 311 | 3.0 | 13.0 | 0.00 | 0.05 | 0.05 | 34 | 1023.3 |
| 20260508041552 | 56 | 291 | 5.0 | 11.0 | 0.00 | 0.05 | 0.05 | 34 | 1023.5 |
| 20260508040046 | 57 | 299 | 5.0 | 12.0 | 0.00 | 0.05 | 0.05 | 33 | 1023.8 |
| 20260508034546 | 57 | 277 | 5.0 | 15.0 | 0.00 | 0.05 | 0.05 | 31 | 1023.8 |
| 20260508033046 | 57 | 314 | 2.0 | 9.0 | 0.00 | 0.05 | 0.05 | 31 | 1023.8 |
| 20260508031545 | 56 | 290 | 3.0 | 5.0 | 0.00 | 0.05 | 0.05 | 32 | 1023.7 |
| 20260508030046 | 55 | 276 | 1.0 | 3.0 | 0.00 | 0.05 | 0.05 | 34 | 1023.5 |
| 20260508024547 | 56 | 276 | 1.0 | 3.0 | 0.00 | 0.05 | 0.05 | 34 | 1023.5 |